Wind_Speed
24 24 25 26 26 26 27 28 28 28 28 28 29 29 30 31 31 31 31 31 32 32 32 31 31 30 28 27 26 28 29 30 31 32 32 31 31 29 27 26 26 24 22 21 21 22 24 24 23 23 24 27 28 29 30 31 33 35 37 38 39 41 42 43 47 48 47 46 46 46 46 46 46 44 42 40 39 38 39 40 39 39 39 39 39
23 23 23 23 23 24 24 25 25 26 25 25 24 24 24 25 26 27 28 28 28 29 28 28 28 28 28 28 29 29 30 29 30 30 29 27 25 23 22 22 23 22 23 23 23 25 27 28 27 26 27 29 30 30 31 31 33 34 35 37 38 39 41 43 46 48 47 45 46 47 46 46 47 46 45 45 42 41 39 38 37 37 38 38 39
22 23 23 22 23 22 22 22 22 22 22 22 21 21 21 21 22 23 24 24 25 26 26 27 28 29 29 29 28 28 27 27 27 26 24 22 21 20 21 23 24 25 26 27 27 29 31 32 32 32 32 34 34 34 34 34 35 35 35 36 37 38 40 42 45 47 48 46 46 47 46 46 46 46 45 46 45 44 43 40 37 36 36 37 38
23 23 22 22 22 22 22 21 21 21 21 21 21 21 21 21 22 22 23 23 24 25 26 27 28 28 28 28 27 26 26 25 25 23 21 21 21 22 24 26 27 29 30 31 32 34 35 36 37 36 37 39 39 38 38 38 38 39 39 38 37 38 38 40 43 45 47 47 45 46 46 46 46 45 45 45 44 43 43 42 39 36 35 37 38
24 24 23 23 23 22 23 23 23 23 22 22 23 23 23 23 23 23 23 24 24 24 25 26 26 26 26 25 24 23 23 23 22 21 21 22 24 26 28 29 31 33 34 36 37 38 39 40 40 40 41 42 42 41 40 39 39 40 41 40 38 38 38 40 41 43 46 47 45 45 46 46 46 45 45 44 43 42 42 41 40 38 36 36 36
26 26 26 26 25 24 24 25 25 25 25 24 24 24 24 24 24 24 24 24 25 25 25 25 25 24 23 22 21 21 21 22 22 22 22 24 27 29 31 33 35 37 39 40 41 43 43 44 44 44 44 44 45 44 42 41 40 40 40 39 37 36 37 38 40 42 44 45 46 46 46 45 45 45 45 44 42 41 40 40 39 38 37 36 36
28 28 28 27 26 26 26 25 26 26 26 26 25 25 25 24 24 24 24 25 26 25 25 25 24 23 21 21 21 21 23 23 24 24 26 28 31 33 34 37 39 41 43 44 45 47 47 48 48 47 47 46 46 45 44 43 42 41 40 38 35 35 36 37 39 40 42 43 44 45 45 45 45 45 45 44 42 41 39 39 39 37 36 37 38
29 29 29 28 28 27 27 26 26 25 25 26 26 25 25 25 25 25 25 25 25 25 25 24 24 23 22 22 22 23 24 25 26 28 31 33 34 36 38 41 43 44 44 45 45 45 46 46 46 46 45 45 45 44 44 43 42 42 40 37 36 35 36 37 38 39 40 41 42 42 43 43 44 45 44 43 42 41 39 39 40 38 38 39 40
30 29 28 28 28 27 26 26 25 25 24 25 25 26 26 26 26 26 25 25 25 25 24 24 24 24 24 24 25 26 27 28 30 33 35 37 38 40 43 45 45 44 42 42 41 40 40 40 41 41 42 42 42 42 42 41 42 42 40 38 37 36 37 38 38 38 38 39 40 40 40 41 41 41 40 41 41 41 39 40 40 40 39 41 41
32 29 27 26 26 26 26 26 25 25 25 25 26 27 27 27 27 27 26 26 26 25 25 24 25 25 26 27 28 29 30 33 35 37 39 40 42 45 46 45 43 41 41 40 39 38 37 37 38 39 40 40 41 40 41 41 41 41 41 39 38 38 38 39 38 38 38 39 40 40 41 41 38 37 37 38 39 40 40 40 41 41 41 43 42
34 28 25 25 25 25 26 26 26 26 26 27 27 28 28 29 29 29 29 28 27 27 27 27 27 28 29 30 31 33 35 37 39 41 42 44 45 46 45 42 41 40 40 40 39 38 37 37 37 38 39 39 39 40 40 40 40 40 40 40 40 40 40 41 40 40 39 40 41 41 41 40 38 36 37 37 37 37 38 40 41 41 42 44 43
32 28 27 27 26 26 26 26 26 26 26 26 27 28 28 29 30 31 32 32 32 32 32 32 32 33 34 34 35 37 38 40 42 43 44 44 43 43 42 41 40 39 39 39 39 38 38 38 38 38 38 39 39 40 40 40 40 40 40 41 41 41 42 42 42 42 42 42 42 42 41 40 39 38 37 36 36 36 37 39 40 41 42 44 43
31 30 30 30 30 30 29 29 29 28 28 28 28 28 29 29 31 32 33 34 35 36 36 37 37 38 39 39 40 40 41 41 42 42 41 40 40 39 39 39 38 38 37 36 37 37 38 38 39 39 39 39 40 40 41 41 41 42 42 43 43 43 43 43 43 44 43 43 44 44 42 41 41 39 37 36 37 37 37 38 39 40 42 44 42
32 32 33 33 33 33 33 33 33 32 32 32 31 32 31 31 32 33 34 35 36 37 38 39 39 40 40 41 41 40 40 39 39 38 38 37 37 37 36 36 36 35 34 34 35 36 36 37 38 39 39 40 41 41 41 42 42 43 44 45 45 45 44 44 44 44 44 43 45 46 44 43 43 41 38 37 37 37 37 38 38 40 42 43 43
35 35 36 36 37 37 37 37 37 37 36 35 34 34 34 34 34 34 34 35 35 36 36 37 37 38 38 38 38 37 36 36 35 35 34 34 33 33 32 32 32 32 31 32 32 33 34 35 36 37 38 39 40 41 42 43 43 44 45 46 46 46 46 46 45 44 44 44 45 46 46 45 44 43 41 39 38 37 37 38 40 42 43 42 43
39 40 40 40 40 40 40 40 40 40 40 39 38 37 35 35 34 34 34 34 34 34 34 34 34 34 33 34 33 32 30 30 30 30 29 28 28 28 29 30 30 30 30 31 32 33 34 35 36 36 37 37 39 40 42 43 44 44 45 46 47 47 47 47 47 45 44 44 45 46 46 46 45 44 43 42 40 37 37 39 41 42 43 42 43
43 43 43 43 43 42 42 42 42 42 41 41 40 39 38 37 36 35 34 33 33 33 33 32 32 31 30 30 29 28 27 26 26 26 26 26 27 28 30 31 32 32 32 33 34 35 36 37 37 37 37 38 39 40 42 44 44 45 46 46 47 48 48 47 46 45 44 45 46 46 47 46 46 45 44 44 42 38 39 41 40 40 41 42 42
45 45 45 44 44 43 43 43 43 42 41 40 39 38 38 37 36 36 35 34 33 33 33 32 30 30 29 28 28 27 27 27 27 27 27 28 29 30 32 32 32 33 34 34 35 36 36 37 37 36 37 38 39 41 43 44 45 47 48 48 47 48 49 49 48 47 45 45 45 46 47 47 46 45 45 45 44 41 40 40 39 39 41 41 42
45 45 44 43 42 41 41 41 40 40 39 38 38 38 37 36 36 35 34 34 32 32 32 31 29 29 29 29 29 29 29 29 29 29 30 30 31 32 33 34 34 34 35 35 35 34 35 35 35 35 36 37 38 40 41 43 45 47 48 49 49 49 49 50 50 50 48 46 45 46 47 47 46 46 46 46 45 44 42 40 38 39 40 40 41
43 42 41 40 39 38 38 38 38 38 37 37 37 37 37 36 36 36 35 34 33 31 31 30 28 27 28 29 30 30 30 30 30 31 31 32 33 34 35 35 36 35 35 35 34 33 33 33 35 36 37 37 37 38 40 42 44 45 47 49 49 49 50 50 50 50 50 49 47 46 45 45 46 46 46 45 45 45 43 41 39 39 39 39 40
40 39 38 37 36 36 35 35 35 35 35 35 35 35 35 35 35 35 35 35 34 32 31 30 29 27 27 27 29 30 31 31 31 32 33 34 35 36 36 37 37 37 36 36 35 35 35 35 36 37 37 37 37 38 39 40 42 43 44 46 47 48 49 50 49 50 50 49 48 47 45 44 44 45 45 44 44 44 44 43 42 41 40 40 40
37 37 36 36 36 35 35 34 34 33 33 33 33 33 33 33 33 34 34 33 33 32 31 31 31 29 28 28 29 31 32 33 34 35 35 36 37 37 38 38 38 39 39 39 39 39 39 38 38 38 38 38 38 39 40 40 41 41 42 42 44 45 47 47 48 48 48 48 48 47 45 44 42 42 43 43 43 43 43 42 42 42 41 41 39
36 36 36 36 35 35 34 33 32 32 31 31 30 30 30 30 30 31 31 31 31 31 31 31 32 32 31 31 32 33 35 36 37 38 39 39 40 41 42 42 43 44 44 44 44 44 44 43 42 41 41 40 40 40 41 41 42 42 43 42 42 42 43 43 44 45 46 47 47 47 45 43 41 40 41 42 43 43 42 42 42 43 43 42 39
36 36 35 35 34 33 32 31 30 30 29 28 28 27 27 28 28 29 30 30 31 31 31 32 33 34 35 34 35 36 38 39 41 42 43 44 45 45 46 47 48 49 49 49 49 48 48 48 46 45 44 43 42 42 42 42 43 43 44 44 44 43 42 42 41 41 42 44 45 46 45 43 42 40 39 40 42 43 43 42 41 43 44 43 40
36 35 34 34 32 31 30 29 29 29 28 28 28 28 28 29 29 30 31 31 32 33 33 33 34 36 37 37 38 39 40 41 43 44 45 45 45 46 46 46 46 47 48 49 49 49 49 50 49 48 47 46 45 45 44 44 44 43 44 44 45 45 44 43 42 41 41 41 42 44 44 44 43 41 39 39 40 41 42 42 42 42 43 44 42
36 35 34 32 31 30 30 30 30 30 30 30 30 31 31 31 32 32 32 33 34 35 35 36 37 37 38 38 38 39 40 41 42 43 44 44 44 44 44 43 43 44 44 45 45 46 47 48 49 49 49 48 47 47 46 46 45 44 44 43 44 45 45 45 44 43 42 42 42 42 42 43 44 43 41 39 39 39 41 42 42 42 43 44 44
36 35 34 33 32 31 31 31 31 31 31 32 33 33 34 35 35 35 36 36 37 37 38 38 39 39 39 39 39 39 40 41 42 43 44 45 44 44 44 44 44 44 44 45 45 45 46 46 47 47 47 47 47 47 48 48 48 47 46 45 45 45 45 45 45 44 44 43 43 43 42 42 42 43 42 40 38 37 39 40 42 42 43 44 44
35 35 34 33 32 32 32 32 32 32 33 34 35 35 36 37 38 38 39 39 39 40 40 40 40 40 40 41 41 41 41 42 44 45 46 47 46 46 46 46 47 47 47 47 47 47 47 47 47 46 46 46 46 47 48 48 48 48 47 47 47 47 46 46 45 45 44 44 43 44 44 43 42 41 41 41 40 37 37 38 40 42 43 44 45
35 35 34 34 33 33 33 33 34 34 35 36 37 37 38 39 40 40 40 40 41 41 42 42 42 42 43 43 45 45 45 45 45 46 47 48 48 48 49 49 49 49 50 50 50 50 50 49 49 48 48 48 47 47 47 48 47 47 47 47 48 48 47 47 47 46 45 44 43 44 45 45 43 41 40 40 40 39 38 37 38 39 41 43 45
35 35 35 35 35 35 35 36 36 37 38 38 39 39 39 40 40 41 41 41 41 42 43 44 44 45 46 47 47 48 48 48 48 48 49 49 50 50 50 50 50 51 51 51 52 52 52 52 51 51 51 51 50 49 49 49 49 48 48 48 48 48 48 48 48 47 46 45 44 44 44 45 45 44 42 40 39 39 40 39 38 39 39 41 43
36 36 36 36 36 37 37 38 38 39 40 40 41 41 41 41 41 42 42 43 43 44 45 46 47 48 49 50 50 50 50 50 51 51 52 52 52 52 52 51 51 51 51 52 53 53 53 53 53 53 53 53 53 52 52 51 51 50 50 50 49 50 50 50 50 49 48 46 45 45 45 45 45 45 44 42 40 39 40 40 40 40 40 40 41
38 38 38 37 38 38 39 40 41 41 41 42 43 43 44 44 44 44 44 45 46 47 48 49 50 51 51 52 52 53 53 53 53 53 54 54 54 54 54 53 53 53 53 54 54 53 54 54 54 54 54 55 54 54 54 54 53 52 52 52 51 51 52 52 52 52 50 49 47 46 45 45 45 45 46 45 43 41 40 40 40 41 41 41 40
39 39 39 39 40 40 41 43 44 44 44 44 44 45 46 46 47 47 47 47 48 49 50 51 52 53 53 54 54 54 55 55 55 54 54 55 55 56 55 55 55 55 55 56 56 55 55 56 56 55 55 55 55 55 55 55 55 54 54 54 54 53 53 54 54 54 53 52 50 48 47 46 46 46 46 45 45 44 43 41 41 40 41 41 41
40 41 41 41 42 43 45 46 46 46 46 46 46 47 48 49 50 51 51 51 51 51 51 52 53 53 54 54 55 55 55 55 55 55 55 55 56 57 57 56 57 57 57 57 57 57 57 58 58 57 57 57 56 56 56 56 56 56 56 55 55 55 55 55 56 56 55 54 53 51 49 48 48 47 47 46 46 45 44 43 42 41 41 41 41
42 43 44 45 46 47 48 48 47 48 48 49 49 50 51 51 52 52 53 54 55 55 55 54 54 54 54 54 55 55 55 55 56 56 57 57 57 58 58 58 58 59 59 59 59 59 58 59 59 59 59 59 58 58 57 57 57 57 57 56 56 56 56 57 57 57 57 56 55 54 52 50 50 49 49 48 47 47 46 45 43 42 41 41 41
45 46 47 48 49 50 49 49 49 49 50 50 51 51 52 52 53 54 55 56 57 57 58 57 57 57 56 56 56 56 55 56 56 57 57 58 59 59 60 60 60 60 61 61 61 61 60 60 61 61 60 60 60 60 59 59 59 59 59 59 58 58 58 58 57 57 58 57 56 55 54 53 51 51 51 51 49 48 47 47 45 44 43 42 41
48 49 50 50 50 50 50 50 51 51 51 51 52 53 54 55 55 56 57 57 58 58 58 58 58 58 58 58 58 58 58 58 58 58 58 59 60 60 61 61 61 61 62 62 63 63 63 63 63 63 63 62 62 62 62 62 62 62 63 62 62 62 61 61 60 60 60 59 58 58 56 55 54 53 52 52 51 50 49 48 47 46 45 43 42
51 51 52 51 51 51 52 52 52 52 52 54 54 55 56 57 57 57 57 57 58 58 58 58 58 59 59 59 59 59 60 60 60 60 60 60 61 62 62 62 63 63 63 63 64 65 65 65 65 65 65 65 65 65 65 65 65 66 66 66 66 66 65 65 64 64 63 63 62 62 60 58 57 55 55 53 52 52 51 50 49 48 47 46 44
52 52 52 52 52 52 52 53 53 54 55 56 56 56 57 57 57 57 57 57 58 58 58 58 58 59 60 60 60 61 62 62 62 63 63 63 63 64 65 65 66 66 66 66 66 67 67 67 67 67 67 67 68 68 68 68 68 68 68 69 69 69 69 68 68 68 67 67 66 65 65 63 61 59 58 56 54 53 52 52 50 49 48 47 46
52 52 52 53 53 53 53 54 55 56 56 56 56 56 56 57 57 57 58 58 59 59 59 59 59 60 61 61 62 63 63 63 64 65 65 65 66 67 67 68 69 69 69 69 69 70 71 70 70 70 70 71 71 71 71 71 71 70 70 71 71 71 71 71 71 71 71 70 70 69 68 67 66 64 61 59 57 55 54 53 53 51 50 48 47
52 52 52 52 53 54 55 56 56 57 56 56 56 56 57 57 58 58 59 59 60 60 60 61 61 61 62 63 63 64 65 66 66 67 67 68 68 69 70 71 71 72 72 73 73 73 74 74 74 74 74 74 74 74 74 74 74 73 73 72 72 72 73 73 73 73 73 73 72 72 71 70 68 67 64 62 60 59 57 56 55 53 51 49 48
52 52 53 54 55 56 57 57 57 57 57 57 57 58 58 58 59 59 60 60 61 61 61 62 62 63 64 65 65 66 67 68 68 69 70 70 71 71 72 72 73 74 74 75 75 76 76 76 76 77 77 77 78 78 77 77 76 76 75 74 73 73 73 73 74 74 73 73 73 73 73 71 69 68 66 64 63 61 59 58 56 55 53 51 49
53 54 55 56 57 58 57 57 57 57 57 58 58 58 59 59 59 60 60 61 61 62 62 63 64 64 65 66 67 68 69 69 70 71 72 73 73 74 74 75 75 76 76 77 77 77 78 78 78 78 78 78 78 78 77 77 76 76 75 74 73 72 72 72 72 72 72 72 71 71 72 71 70 68 67 65 63 62 61 59 57 56 54 52 50
55 56 57 58 58 58 58 58 58 58 58 58 58 59 59 60 60 60 61 62 62 63 64 64 65 66 67 68 68 69 70 71 71 72 73 74 75 75 76 76 77 77 78 78 78 78 78 78 78 78 77 77 76 75 73 73 72 71 71 70 70 70 70 69 68 68 68 68 68 69 69 70 69 68 66 65 63 62 61 59 58 56 55 53 52
57 58 58 58 58 58 58 58 58 58 58 59 59 59 60 60 61 61 62 63 63 64 65 65 66 67 67 68 69 69 70 71 72 73 73 74 75 75 76 76 77 77 77 78 77 77 77 76 76 75 75 74 72 70 69 67 66 65 65 66 66 67 67 67 66 65 64 64 65 66 67 67 68 67 65 63 61 60 59 58 57 56 55 53 52
57 57 58 58 57 57 58 58 58 58 59 59 59 60 60 61 61 62 62 63 64 64 65 65 66 66 67 67 68 68 69 70 70 71 72 73 74 74 74 74 75 75 75 75 75 75 74 73 72 71 70 68 67 65 63 62 62 62 62 62 63 63 64 64 63 63 62 62 62 63 64 64 65 64 62 61 59 58 57 56 56 55 54 52 51
56 56 56 56 56 57 57 57 58 58 58 59 59 60 60 61 61 61 62 62 63 63 64 64 64 65 65 65 66 66 67 68 69 69 70 71 72 72 72 72 72 72 72 72 71 71 70 68 67 65 64 62 61 60 59 59 59 59 58 57 57 58 58 57 57 57 57 57 57 58 59 60 60 59 58 58 57 56 54 53 52 52 51 50 49
55 55 55 55 56 56 56 57 57 57 58 58 58 58 58 59 59 59 60 60 60 60 61 61 61 61 62 62 63 63 64 65 65 66 67 67 67 68 68 68 68 68 67 66 65 64 63 62 61 60 59 58 57 56 56 56 55 54 52 51 51 51 50 50 50 50 50 50 50 51 52 54 54 54 55 56 56 54 51 49 48 47 47 47 47
54 54 54 54 54 55 55 55 55 55 55 55 55 55 55 55 55 56 56 56 56 56 56 56 56 57 57 57 58 58 59 59 60 60 61 61 61 62 62 61 61 60 59 58 58 57 57 57 56 56 55 55 54 54 53 53 52 51 49 48 48 48 48 48 48 48 48 48 47 47 48 50 51 53 54 54 53 51 48 45 43 43 43 44 45
51 51 51 51 51 51 51 50 50 50 50 50 50 50 50 49 49 49 49 49 48 48 48 49 49 49 50 50 51 51 51 51 52 52 52 53 53 53 53 52 52 51 51 51 51 51 51 51 51 51 51 51 51 51 51 51 51 50 48 47 47 47 47 47 48 48 49 49 47 47 48 49 49 51 51 51 51 49 45 41 40 39 39 40 40
47 46 46 46 45 45 45 45 45 45 44 44 43 43 42 41 41 40 40 40 40 39 39 39 40 40 40 41 41 41 41 41 42 42 43 43 44 44 44 44 44 44 43 44 44 44 45 45 45 46 46 46 46 46 46 47 47 47 46 46 46 46 46 47 48 48 48 48 47 48 50 50 49 49 50 49 47 43 40 37 36 35 34 34 35
Wind_Direction
262 262 263 264 265 267 268 270 271 272 272 272 273 274 274 275 276 276 275 275 275 274 274 275 274 275 274 272 271 269 269 270 270 270 271 274 276 278 278 278 278 280 280 281 284 285 285 285 285 286 285 283 283 283 283 283 282 282 283 284 285 286 288 288 288 289 291 293 294 295 296 296 296 295 293 289 283 278 275 275 275 275 275 276 276
262 263 264 265 266 267 268 269 269 271 272 272 272 271 271 272 274 275 276 277 278 277 277 277 275 275 275 275 274 273 272 271 270 271 272 273 273 272 272 272 273 276 279 281 285 286 286 288 289 289 288 286 285 284 284 284 284 284 285 286 286 286 286 287 287 288 290 291 292 292 293 294 295 297 297 296 293 287 282 279 277 276 276 276 276
261 263 265 266 266 266 267 267 268 269 270 271 271 269 268 268 269 271 274 275 277 278 278 277 276 276 277 278 277 275 273 272 271 271 271 268 266 266 268 271 274 277 280 283 285 287 287 288 289 290 289 286 285 285 285 285 285 286 286 286 286 286 286 286 286 287 288 289 290 291 292 293 294 295 296 296 295 293 289 286 282 279 277 277 277
263 264 264 265 266 267 267 268 269 270 272 272 272 272 270 269 268 268 270 271 273 275 276 277 277 278 279 279 277 275 273 272 270 266 262 260 262 266 271 275 278 282 284 286 288 289 289 289 290 291 290 288 289 289 289 289 288 287 286 285 284 284 286 286 286 286 286 287 288 289 290 290 291 292 293 293 293 293 291 289 287 283 280 278 277
269 269 269 269 269 270 269 269 270 271 273 274 275 276 275 273 272 270 269 270 270 271 272 274 275 277 277 277 276 274 270 266 261 256 255 259 266 273 278 281 284 286 288 289 290 291 291 291 292 291 290 290 291 291 290 291 290 289 287 285 284 284 285 285 286 286 286 285 286 287 287 287 289 290 290 291 292 292 290 289 288 287 284 281 281
276 274 273 273 274 275 273 271 271 270 272 274 276 277 278 278 277 275 273 272 270 270 270 271 272 273 273 273 271 268 263 258 254 252 256 266 274 279 283 286 288 289 291 291 291 291 291 291 291 290 290 290 291 291 291 291 291 290 289 287 285 285 284 285 287 287 286 285 286 286 286 286 288 288 288 289 290 291 290 288 287 287 286 284 284
279 275 274 274 276 278 277 274 272 270 270 272 274 277 278 279 280 280 279 276 274 272 271 270 270 270 269 268 267 264 261 257 254 256 264 273 279 282 286 289 290 291 291 290 290 289 288 287 287 287 288 288 289 291 291 291 291 291 290 287 285 284 284 285 286 287 287 287 286 286 287 288 288 287 288 288 289 290 290 288 286 286 285 283 284
279 275 273 274 275 276 276 275 274 272 271 271 272 274 276 278 280 281 281 280 277 275 273 272 270 268 267 265 264 262 259 255 256 263 271 277 280 282 286 289 290 290 290 289 289 288 287 286 286 286 287 287 288 289 290 289 289 289 290 287 285 283 282 283 284 286 288 288 287 288 290 289 288 287 288 288 289 290 289 286 283 283 283 284 284
278 275 271 271 271 269 268 269 270 272 272 271 271 272 274 276 277 279 279 279 277 276 275 273 270 268 267 265 263 261 258 258 263 270 275 278 280 283 287 290 291 290 291 292 291 291 291 290 290 290 289 288 288 289 289 288 288 288 289 287 284 283 282 282 283 285 288 288 288 289 289 287 287 289 291 291 290 288 285 282 282 282 282 283 283
274 270 267 266 264 262 261 262 263 266 268 268 269 269 271 272 273 274 275 274 273 273 272 271 269 268 267 266 265 263 263 265 269 273 276 278 281 285 288 290 290 291 293 294 295 295 294 293 292 291 290 289 289 288 288 288 288 288 288 286 284 283 282 283 284 285 287 286 286 287 287 286 290 296 296 295 292 288 285 284 282 281 282 283 282
268 262 259 260 260 259 259 259 260 261 262 264 265 266 268 269 270 270 271 270 269 269 268 268 267 266 266 265 265 266 267 269 272 275 278 280 283 286 288 288 289 291 293 294 295 295 295 295 294 293 293 292 291 289 288 288 288 288 287 286 284 282 282 283 284 285 286 285 285 287 289 292 298 301 300 299 297 293 289 285 283 282 282 282 282
261 257 258 259 260 261 261 261 261 261 262 262 263 264 265 266 267 267 267 267 267 267 267 267 267 267 267 268 268 269 271 273 275 278 280 282 284 285 286 287 288 289 290 291 292 293 293 294 295 295 296 297 296 295 293 292 290 288 287 286 284 283 283 283 284 285 286 288 288 289 294 297 298 299 301 302 300 295 291 288 287 285 282 280 281
253 255 258 260 262 263 263 263 263 263 264 265 265 265 265 265 266 265 265 265 265 265 266 266 267 268 269 271 272 273 274 276 277 279 280 281 282 282 283 284 285 286 287 288 288 289 290 290 291 292 294 295 296 296 296 295 294 292 291 289 288 287 286 285 285 285 287 289 289 289 292 293 292 294 298 300 298 296 295 293 291 289 285 282 281
250 253 257 260 262 263 264 264 264 264 264 264 264 264 265 265 265 264 264 264 264 265 266 267 268 269 270 272 273 274 275 276 276 277 277 278 279 279 280 281 282 283 284 285 286 287 288 289 289 290 291 291 292 293 293 293 293 292 292 291 290 290 288 287 285 284 285 286 287 288 289 289 288 290 293 295 295 297 298 296 293 288 284 281 280
253 257 260 261 262 263 264 265 267 268 267 266 265 264 263 263 263 263 264 264 265 265 266 268 269 270 272 273 274 275 275 274 275 275 275 276 276 278 279 279 281 282 283 285 286 287 288 288 288 288 288 288 289 289 289 289 289 289 289 290 290 290 290 289 287 285 285 285 286 288 288 288 287 288 290 291 292 294 296 295 291 287 284 283 283
257 260 261 263 263 264 265 266 267 269 270 271 271 271 270 269 268 268 268 269 269 269 270 272 273 275 276 277 277 277 275 274 274 273 273 273 273 274 276 277 278 280 281 283 285 287 287 286 286 286 285 285 284 284 285 286 286 286 285 286 288 288 289 290 290 289 287 284 284 286 287 288 287 287 288 287 288 291 293 291 289 289 289 287 286
260 260 260 261 263 265 266 267 268 269 270 271 273 274 275 276 276 277 278 278 279 279 279 280 281 281 281 280 280 278 274 272 271 269 267 266 267 270 273 276 278 280 281 284 285 286 285 284 285 285 285 284 283 282 283 284 285 285 284 284 285 285 287 290 292 292 289 285 284 284 285 286 286 286 286 285 285 287 287 287 291 293 291 287 287
261 261 261 261 261 263 264 265 266 268 269 271 273 275 277 278 280 281 282 283 284 284 285 285 284 284 282 280 278 275 271 267 265 262 261 262 267 272 276 277 279 280 282 283 284 284 284 284 285 287 288 287 286 285 284 285 285 286 286 285 283 284 286 289 290 290 290 289 288 286 284 284 284 284 284 283 283 283 283 285 290 292 290 291 291
261 261 261 260 260 260 260 261 264 266 269 271 274 276 278 280 281 282 283 283 284 284 284 284 283 282 282 281 278 275 271 268 265 262 262 265 271 276 278 279 279 280 281 282 282 282 283 284 286 288 290 290 289 289 289 289 288 288 288 287 285 285 287 288 288 288 290 291 290 289 287 285 282 281 282 282 282 282 283 285 287 287 289 291 289
258 258 258 257 258 259 259 261 262 264 267 270 272 274 276 278 279 280 281 282 282 282 283 283 282 280 279 278 276 273 270 267 265 265 266 270 276 278 279 280 280 280 280 280 279 280 282 285 287 289 291 290 290 290 290 291 291 291 290 289 289 288 289 289 289 290 291 291 291 291 290 287 283 280 280 281 282 283 284 284 284 284 285 285 284
255 256 257 258 259 260 261 262 262 263 264 265 267 269 270 272 274 275 277 278 279 281 282 282 282 281 279 276 274 271 269 268 269 271 274 276 279 280 280 281 281 281 281 280 280 280 282 286 289 290 291 292 291 291 292 293 294 295 294 293 291 290 290 289 290 290 291 291 291 291 290 289 286 282 279 279 280 282 283 283 282 282 282 282 282
254 255 257 258 259 260 261 262 262 263 263 263 264 265 266 267 268 269 271 273 274 276 278 279 280 280 279 277 274 272 271 271 273 275 278 280 281 282 283 283 284 284 284 283 283 283 284 286 288 289 290 291 291 292 293 296 297 299 299 299 298 296 294 292 291 291 290 291 291 291 291 293 292 287 282 279 278 279 279 280 280 279 279 279 279
253 255 256 257 258 259 260 261 262 262 262 263 263 264 264 265 266 267 268 269 270 272 273 274 275 275 276 276 275 274 273 273 274 276 278 280 282 283 285 286 286 287 287 286 286 285 285 285 286 287 288 288 290 291 293 295 297 298 300 301 304 305 303 300 297 295 293 291 291 292 293 295 296 294 288 282 278 276 275 275 276 276 276 276 276
253 254 255 256 257 258 258 259 259 259 260 261 261 262 263 264 265 266 267 268 269 270 271 272 272 272 273 274 275 276 276 276 277 279 281 283 284 285 287 288 288 288 288 288 287 286 285 285 285 285 286 286 288 290 291 293 295 297 298 299 301 304 307 307 306 304 300 297 294 293 293 295 297 297 294 287 281 277 275 274 274 275 276 276 275
254 255 255 255 255 255 255 255 256 257 258 259 260 262 263 264 265 267 268 269 270 271 271 272 272 273 274 275 276 277 278 279 280 282 284 285 286 287 287 288 288 288 288 288 287 286 285 285 285 285 285 286 287 288 289 290 291 294 296 298 298 300 302 305 307 308 308 306 302 298 295 294 294 295 296 293 288 282 278 274 273 274 276 276 276
254 253 252 251 251 251 252 252 253 256 258 259 261 262 264 265 267 268 270 271 272 273 273 274 275 277 278 278 278 278 279 280 281 283 284 284 285 285 286 286 286 287 287 287 287 286 286 286 285 285 286 286 287 287 287 288 288 289 293 295 297 297 299 300 302 305 307 308 307 305 302 297 293 292 294 296 294 289 283 277 274 274 275 277 279
250 250 249 249 249 250 251 252 254 256 259 261 263 264 266 267 268 269 272 273 274 275 275 276 277 279 279 278 279 279 280 281 281 282 282 283 284 285 286 286 286 286 286 286 286 285 285 285 285 285 285 286 286 286 286 286 286 287 289 293 295 296 297 298 299 300 302 303 305 306 306 303 298 294 292 293 295 294 289 283 279 276 275 277 280
248 248 248 250 251 252 253 255 257 259 261 263 265 266 267 268 269 271 274 275 276 276 277 277 278 279 279 279 280 280 280 282 283 283 284 284 285 285 286 287 287 287 287 287 286 286 285 285 285 285 285 285 285 284 285 286 286 285 286 288 291 293 295 296 296 297 298 299 300 302 304 304 303 299 294 292 292 293 292 288 284 280 276 276 277
248 248 250 251 253 255 257 260 262 264 265 266 267 268 269 270 271 272 274 276 277 277 278 279 280 280 280 281 282 282 282 283 284 285 285 286 286 286 287 287 288 288 288 288 288 287 286 286 286 286 286 285 284 283 284 285 286 285 284 284 285 288 291 293 294 296 296 296 297 299 300 301 302 302 299 295 292 291 290 289 288 285 281 278 277
251 251 252 254 257 259 262 265 268 269 269 269 269 269 270 271 272 272 273 275 276 277 278 279 280 282 282 283 285 286 285 285 286 286 287 287 288 287 287 288 288 288 288 288 288 287 287 287 287 288 287 287 286 285 285 285 284 284 284 283 283 284 286 289 292 293 294 295 296 296 297 299 300 300 300 298 294 291 289 288 288 288 286 285 283
254 254 256 258 260 263 267 270 272 272 272 271 270 270 270 270 271 272 273 274 275 276 278 280 281 283 284 284 285 286 286 286 287 287 287 288 288 288 288 288 288 288 287 287 287 287 287 287 287 287 287 287 287 286 286 285 285 284 284 283 283 283 284 286 289 291 292 293 294 295 295 296 297 298 299 299 297 294 291 289 288 287 287 287 287
255 256 258 261 264 267 270 273 274 274 274 273 273 272 271 271 271 272 274 275 276 278 279 281 282 284 284 285 285 285 285 286 286 286 286 286 286 286 286 286 286 287 287 286 286 286 286 286 286 286 286 286 286 286 286 285 285 285 284 283 283 283 284 285 287 289 290 292 293 293 293 294 295 296 297 298 298 297 295 292 290 288 287 286 286
258 260 262 264 267 270 273 275 276 276 275 275 275 275 275 274 274 273 274 276 277 279 281 282 283 284 285 285 285 285 285 285 285 285 284 284 284 284 284 284 285 285 285 285 285 285 285 285 285 285 285 284 285 285 285 285 285 285 284 284 283 283 284 285 286 287 289 291 292 292 292 292 293 294 295 296 297 296 295 294 292 290 289 287 286
261 263 266 268 270 272 274 275 275 275 274 275 275 276 277 277 278 278 278 278 278 280 281 283 284 284 285 285 285 285 285 285 285 284 284 283 283 283 283 283 283 283 283 283 283 283 284 284 284 284 284 284 284 284 284 284 284 284 284 284 284 284 284 285 285 286 288 289 291 291 291 292 292 292 293 294 295 295 295 294 293 291 290 289 288
263 264 266 267 269 271 272 272 273 273 274 275 276 277 278 279 280 281 282 282 282 282 283 284 285 285 285 285 284 284 284 284 284 284 284 284 283 283 282 282 282 282 282 282 282 282 282 282 282 282 282 282 283 283 283 283 283 283 284 284 284 284 284 284 285 286 287 288 289 290 290 290 290 291 292 292 293 294 294 294 294 293 291 291 290
261 262 264 266 268 269 270 271 273 275 276 277 278 279 280 281 282 283 283 284 285 285 285 286 286 286 286 286 285 285 284 284 283 283 283 283 283 283 283 282 282 282 283 283 283 282 282 281 281 281 282 282 282 282 282 283 282 283 283 283 283 283 283 284 284 285 286 286 287 288 288 289 288 289 289 290 291 292 292 293 293 292 292 292 291
259 261 264 266 267 269 271 274 276 277 278 279 280 281 282 283 283 284 284 285 285 285 285 286 286 286 286 286 286 286 285 284 284 283 283 283 283 283 283 283 283 283 282 282 283 282 282 282 282 282 282 283 283 283 283 283 283 283 283 283 283 283 283 283 283 283 284 284 285 286 286 286 287 287 287 287 288 289 290 291 291 291 291 291 291
261 264 265 267 268 271 273 275 277 278 280 281 282 283 283 284 284 284 284 285 285 285 285 286 286 286 286 286 286 286 285 285 285 285 284 284 284 283 283 283 283 283 282 282 282 282 282 282 282 282 282 282 282 282 282 282 283 283 283 283 283 283 283 283 282 282 283 283 283 284 284 284 284 285 285 285 286 286 288 289 289 289 289 289 290
263 265 266 268 270 273 275 276 278 280 282 283 283 283 284 284 284 285 285 285 285 286 286 286 286 286 286 286 286 286 286 286 286 285 285 285 284 284 284 284 283 283 283 282 282 282 282 282 282 282 282 282 282 282 282 281 281 281 282 282 282 282 282 282 282 282 282 281 281 282 282 282 282 282 283 283 284 284 285 286 287 287 287 288 289
265 266 268 270 272 274 276 279 280 282 282 283 283 284 284 285 285 285 286 286 286 287 287 287 287 287 287 286 286 286 286 286 285 285 285 285 285 285 285 285 285 285 284 284 284 284 283 283 283 283 282 282 282 282 282 282 282 281 281 280 280 281 281 281 281 280 280 280 280 280 279 279 280 280 280 281 281 282 282 283 284 285 285 286 287
267 268 270 272 275 277 279 281 282 283 283 284 284 285 285 286 286 286 286 286 287 287 287 287 287 287 286 286 286 286 286 285 285 285 285 285 285 285 285 285 285 285 285 285 285 285 284 284 284 284 284 283 283 283 283 282 282 282 281 280 279 279 279 279 278 278 278 277 277 277 277 276 276 276 277 277 278 278 279 280 281 283 283 284 284
269 271 273 275 278 280 281 282 283 283 284 284 285 285 285 285 286 286 286 286 286 286 286 286 286 286 286 286 286 286 286 286 286 285 285 285 285 285 285 285 285 285 285 285 285 284 284 284 284 284 284 284 284 284 284 284 283 283 282 281 280 280 279 278 277 276 275 274 274 273 273 273 273 272 273 273 273 274 275 276 278 279 280 281 282
272 274 276 277 279 280 280 281 282 282 283 283 284 284 285 285 285 286 286 286 286 286 286 286 286 286 286 286 286 286 286 286 286 286 286 286 286 285 285 285 285 285 285 284 284 284 284 284 283 283 283 283 283 284 284 284 283 283 282 282 281 280 279 279 277 276 275 273 271 270 269 269 269 269 268 268 268 269 270 272 273 275 277 278 279
274 276 277 278 279 279 280 281 281 282 283 283 284 284 285 285 285 285 285 286 286 286 286 286 286 285 285 285 286 286 286 286 286 286 286 286 286 286 286 285 285 285 285 285 284 284 284 283 283 282 282 282 282 282 281 281 280 280 280 281 281 280 280 279 278 277 275 273 271 269 267 265 265 264 263 263 263 264 265 267 269 270 272 273 275
276 277 278 278 279 279 280 281 282 282 283 283 284 284 284 285 285 285 285 285 285 285 285 285 285 285 285 286 286 286 286 286 286 287 287 287 287 287 287 287 286 286 286 286 285 285 285 284 283 282 282 281 280 279 278 278 278 279 280 281 281 280 280 280 279 278 276 274 271 269 267 264 263 261 260 258 258 258 260 262 263 265 267 269 271
277 278 278 278 279 280 280 281 282 282 283 283 284 284 284 285 285 285 285 286 286 286 286 286 286 286 287 287 287 288 288 288 288 288 289 289 289 289 289 289 288 288 288 287 287 286 285 285 284 283 281 280 279 277 276 276 277 279 279 280 280 280 280 280 279 277 276 274 271 268 266 264 262 260 258 256 254 254 255 256 258 259 262 264 266
277 278 278 278 279 280 280 281 281 282 282 283 283 283 284 284 285 285 285 286 286 286 287 287 288 288 289 289 290 290 290 290 290 290 290 290 291 291 290 290 290 289 289 288 288 287 286 285 284 283 281 280 278 276 276 276 277 278 278 279 280 281 281 281 280 278 276 274 271 268 266 263 261 260 258 256 253 252 251 252 253 255 256 258 261
277 278 278 279 279 280 280 281 281 282 282 282 283 283 284 284 285 285 286 287 288 288 289 290 290 291 291 292 292 292 292 292 292 292 292 292 291 291 291 291 290 290 289 289 288 287 286 285 283 282 281 279 277 276 276 276 276 276 277 278 280 282 283 283 283 281 279 276 272 268 266 262 258 258 258 255 253 251 250 249 249 250 251 253 255
277 277 278 278 279 279 280 280 281 281 282 282 283 284 284 285 286 287 288 289 290 291 291 292 292 293 293 294 294 294 294 294 294 294 293 293 292 292 292 292 291 290 290 288 287 286 284 283 282 281 280 279 278 276 276 275 273 273 273 276 277 278 279 280 280 280 279 276 270 265 261 258 256 256 256 255 253 252 249 246 246 246 246 248 251
275 276 277 277 278 278 279 280 280 281 282 283 284 285 286 287 288 289 290 291 292 293 294 294 295 296 296 297 297 297 297 297 297 296 295 295 294 294 293 292 292 291 290 289 288 287 285 284 283 282 281 280 279 278 276 275 273 271 271 273 275 276 276 277 277 276 275 273 268 262 258 255 254 255 256 255 252 250 248 245 244 244 244 246 249
274 274 275 276 277 278 279 280 281 282 283 284 285 287 288 289 291 292 293 294 295 296 297 298 298 299 299 299 299 300 300 300 300 299 299 298 297 295 295 294 293 293 292 291 290 289 288 287 286 284 283 282 281 280 279 277 275 272 270 271 273 275 275 276 277 276 273 269 264 261 259 256 253 253 254 252 248 245 245 245 245 244 244 246 248
Height
3083 3084 3084 3085 3085 3085 3085 3085 3085 3085 3085 3085 3084 3085 3084 3084 3084 3084 3084 3084 3083 3083 3083 3083 3083 3083 3083 3083 3084 3084 3084 3084 3083 3083 3083 3083 3083 3082 3081 3080 3079 3079 3078 3077 3077 3075 3074 3074 3074 3074 3073 3071 3070 3069 3068 3067 3066 3064 3062 3060 3059 3058 3056 3053 3048 3043 3043 3043 3042 3041 3040 3038 3037 3037 3038 3038 3038 3037 3036 3034 3033 3033 3032 3031 3030
3079 3080 3080 3081 3081 3081 3081 3081 3081 3081 3081 3081 3080 3081 3080 3080 3080 3079 3080 3080 3079 3079 3079 3079 3079 3079 3079 3080 3080 3080 3080 3080 3079 3079 3079 3079 3079 3078 3078 3077 3076 3075 3075 3074 3074 3072 3070 3070 3070 3070 3069 3067 3066 3066 3065 3064 3062 3060 3059 3057 3055 3054 3052 3049 3046 3041 3039 3039 3038 3036 3035 3034 3032 3031 3030 3029 3030 3030 3030 3029 3029 3028 3027 3026 3024
3075 3076 3076 3077 3077 3077 3077 3077 3077 3077 3077 3076 3076 3076 3076 3076 3076 3076 3076 3076 3076 3076 3076 3076 3075 3075 3076 3076 3076 3076 3076 3076 3076 3075 3076 3075 3075 3075 3074 3073 3072 3072 3071 3071 3070 3069 3067 3066 3065 3065 3064 3062 3062 3061 3060 3059 3058 3056 3055 3053 3051 3050 3048 3046 3043 3039 3035 3034 3034 3032 3031 3030 3028 3027 3026 3024 3023 3022 3022 3023 3023 3023 3022 3021 3019
3071 3072 3072 3072 3073 3073 3073 3073 3073 3073 3073 3072 3072 3073 3072 3073 3073 3072 3072 3072 3072 3072 3072 3072 3072 3072 3072 3072 3072 3072 3072 3072 3072 3072 3072 3072 3071 3071 3070 3070 3069 3068 3068 3067 3066 3065 3063 3062 3062 3061 3059 3057 3056 3056 3055 3054 3052 3051 3049 3048 3046 3045 3043 3041 3038 3036 3032 3030 3029 3029 3027 3026 3024 3023 3022 3020 3018 3017 3016 3016 3016 3017 3016 3015 3013
3067 3068 3068 3069 3069 3069 3069 3069 3069 3069 3069 3069 3069 3069 3069 3069 3069 3069 3069 3069 3069 3068 3068 3068 3068 3068 3069 3069 3068 3068 3068 3068 3068 3068 3068 3068 3067 3067 3066 3066 3065 3064 3064 3063 3062 3061 3059 3058 3057 3056 3054 3052 3051 3051 3050 3048 3047 3045 3043 3042 3040 3039 3038 3036 3033 3031 3028 3025 3024 3024 3022 3021 3020 3019 3017 3015 3014 3013 3012 3011 3010 3010 3010 3009 3007
3064 3064 3065 3065 3065 3066 3066 3066 3066 3066 3066 3065 3065 3066 3066 3066 3066 3066 3066 3065 3065 3065 3065 3065 3065 3065 3065 3065 3065 3065 3064 3064 3064 3065 3065 3064 3063 3063 3062 3062 3061 3060 3060 3059 3058 3056 3055 3054 3053 3051 3049 3047 3046 3045 3044 3043 3041 3039 3037 3036 3035 3033 3031 3030 3028 3025 3022 3020 3018 3018 3016 3016 3014 3013 3012 3011 3010 3008 3007 3006 3005 3005 3004 3002 3001
3060 3060 3061 3061 3061 3061 3062 3062 3062 3062 3062 3062 3062 3062 3062 3062 3062 3062 3062 3062 3062 3062 3062 3061 3061 3061 3061 3061 3061 3061 3061 3061 3061 3061 3061 3060 3060 3059 3058 3057 3057 3056 3055 3054 3053 3051 3050 3048 3047 3046 3044 3042 3041 3040 3039 3037 3035 3033 3032 3031 3030 3028 3026 3024 3022 3019 3017 3015 3013 3012 3011 3010 3009 3007 3007 3006 3005 3004 3003 3001 3000 2999 2998 2997 2995
3056 3056 3056 3057 3057 3057 3057 3058 3058 3058 3058 3058 3058 3058 3058 3058 3058 3058 3058 3058 3058 3058 3058 3058 3058 3058 3058 3058 3058 3058 3058 3058 3058 3058 3057 3056 3056 3055 3054 3053 3052 3051 3050 3049 3047 3046 3044 3043 3041 3040 3038 3037 3036 3035 3034 3032 3030 3028 3027 3026 3024 3022 3020 3019 3016 3014 3012 3010 3008 3007 3006 3004 3003 3002 3001 3001 3000 2999 2999 2996 2994 2994 2993 2991 2990
3052 3052 3052 3053 3053 3053 3053 3053 3053 3053 3053 3054 3054 3054 3054 3054 3054 3054 3054 3054 3055 3055 3055 3055 3055 3055 3055 3055 3055 3055 3055 3055 3054 3054 3053 3052 3051 3051 3050 3049 3047 3046 3045 3043 3042 3040 3039 3037 3036 3034 3033 3032 3031 3030 3029 3027 3025 3023 3022 3021 3019 3017 3015 3013 3011 3010 3008 3006 3004 3003 3001 2999 2998 2997 2996 2995 2994 2993 2993 2990 2988 2988 2987 2985 2985
3048 3049 3049 3049 3048 3048 3049 3049 3049 3049 3049 3049 3049 3049 3049 3049 3050 3050 3050 3050 3051 3051 3051 3051 3051 3051 3051 3051 3051 3051 3051 3051 3050 3049 3049 3048 3047 3046 3045 3043 3042 3041 3039 3038 3037 3035 3034 3033 3031 3030 3028 3027 3026 3025 3023 3022 3020 3018 3017 3015 3013 3011 3009 3007 3006 3005 3003 3001 2999 2998 2996 2994 2994 2993 2991 2989 2989 2987 2986 2984 2983 2982 2981 2979 2979
3044 3045 3044 3044 3044 3044 3044 3044 3045 3045 3045 3045 3045 3045 3045 3045 3045 3045 3046 3046 3046 3046 3047 3047 3047 3047 3047 3047 3047 3047 3046 3046 3045 3044 3043 3042 3041 3040 3039 3038 3037 3035 3034 3032 3031 3030 3029 3028 3026 3025 3024 3022 3021 3020 3018 3017 3015 3014 3012 3010 3008 3006 3004 3002 3001 3000 2998 2996 2995 2993 2990 2989 2989 2988 2985 2984 2984 2982 2980 2978 2977 2977 2976 2974 2973
3040 3040 3040 3040 3040 3040 3040 3040 3040 3040 3041 3041 3040 3041 3041 3041 3041 3041 3041 3041 3042 3042 3042 3042 3042 3042 3042 3042 3042 3041 3041 3040 3040 3039 3038 3037 3035 3034 3033 3032 3031 3030 3029 3028 3027 3025 3024 3023 3021 3020 3019 3017 3016 3014 3013 3012 3010 3008 3007 3005 3003 3001 3000 2998 2996 2994 2992 2991 2989 2987 2986 2985 2984 2982 2981 2980 2979 2976 2974 2973 2972 2971 2970 2968 2967
3035 3035 3036 3036 3036 3036 3036 3036 3036 3036 3036 3036 3037 3037 3037 3037 3037 3037 3037 3037 3037 3037 3037 3037 3037 3037 3037 3036 3036 3036 3035 3034 3034 3033 3032 3031 3030 3029 3028 3027 3026 3025 3024 3023 3022 3020 3019 3018 3017 3015 3014 3012 3011 3009 3007 3006 3004 3003 3001 2999 2998 2996 2995 2993 2991 2989 2987 2986 2984 2982 2982 2981 2979 2978 2978 2976 2973 2971 2969 2968 2967 2966 2964 2962 2962
3030 3030 3031 3031 3031 3031 3031 3031 3031 3032 3032 3032 3032 3032 3032 3032 3032 3032 3032 3032 3032 3032 3032 3032 3032 3031 3031 3031 3031 3030 3029 3029 3028 3028 3027 3026 3025 3024 3023 3022 3021 3020 3019 3018 3017 3016 3014 3013 3011 3010 3009 3007 3006 3004 3002 3001 2999 2997 2995 2994 2992 2991 2990 2988 2986 2985 2983 2982 2979 2978 2978 2977 2974 2973 2972 2970 2968 2966 2965 2963 2962 2960 2958 2957 2956
3025 3025 3025 3026 3026 3026 3026 3026 3026 3026 3026 3026 3026 3027 3027 3027 3027 3027 3027 3027 3027 3027 3027 3027 3026 3026 3026 3026 3026 3025 3024 3024 3023 3022 3022 3021 3020 3019 3018 3017 3016 3015 3015 3013 3012 3011 3010 3008 3006 3005 3004 3002 3000 2998 2997 2995 2993 2992 2990 2988 2987 2986 2985 2983 2981 2980 2979 2978 2975 2972 2972 2970 2968 2967 2966 2964 2962 2961 2960 2958 2956 2954 2953 2952 2951
3021 3021 3020 3020 3020 3020 3020 3020 3020 3020 3020 3020 3020 3021 3021 3021 3021 3021 3022 3022 3022 3022 3022 3022 3021 3021 3020 3020 3020 3020 3019 3019 3018 3017 3017 3016 3015 3014 3013 3012 3011 3011 3010 3009 3007 3006 3004 3003 3001 3000 2998 2996 2994 2993 2991 2989 2988 2986 2984 2983 2981 2980 2979 2978 2976 2976 2974 2972 2970 2967 2966 2964 2962 2961 2959 2958 2956 2956 2954 2952 2950 2949 2948 2946 2945
3016 3016 3016 3016 3015 3015 3015 3014 3014 3014 3014 3014 3015 3015 3015 3015 3016 3016 3016 3016 3016 3016 3017 3016 3016 3016 3015 3015 3015 3015 3014 3013 3013 3012 3012 3011 3010 3009 3008 3007 3007 3006 3005 3004 3003 3001 2999 2997 2996 2994 2993 2991 2989 2987 2986 2984 2982 2980 2978 2977 2976 2974 2974 2972 2970 2970 2968 2966 2964 2962 2960 2958 2957 2956 2954 2952 2951 2950 2948 2945 2945 2945 2943 2940 2939
3010 3010 3010 3010 3010 3010 3009 3009 3009 3009 3009 3009 3009 3010 3010 3010 3011 3011 3011 3011 3011 3011 3011 3011 3011 3011 3010 3010 3010 3010 3009 3008 3008 3007 3007 3006 3005 3004 3003 3003 3002 3001 3000 2999 2998 2997 2995 2993 2991 2989 2988 2986 2984 2982 2980 2978 2977 2974 2972 2971 2970 2969 2968 2965 2964 2963 2961 2959 2958 2956 2954 2953 2952 2951 2949 2947 2946 2945 2942 2941 2940 2939 2936 2935 2935
3004 3004 3004 3004 3004 3004 3004 3004 3004 3004 3004 3004 3005 3005 3005 3005 3006 3006 3006 3006 3007 3006 3007 3007 3006 3006 3006 3005 3005 3005 3004 3003 3003 3002 3002 3001 3000 2999 2998 2997 2997 2996 2995 2994 2993 2992 2990 2988 2986 2985 2983 2981 2979 2977 2975 2973 2971 2969 2967 2965 2964 2963 2961 2959 2957 2956 2954 2953 2952 2950 2948 2947 2946 2944 2943 2942 2941 2939 2937 2936 2935 2932 2930 2929 2930
2998 2998 2998 2999 2999 2999 2999 2999 3000 3000 3000 3000 3001 3001 3001 3001 3001 3001 3001 3002 3002 3001 3002 3002 3002 3002 3001 3001 3000 3000 2999 2999 2998 2997 2997 2996 2995 2994 2993 2992 2991 2991 2990 2989 2988 2987 2985 2983 2982 2980 2978 2977 2975 2972 2971 2968 2966 2964 2962 2960 2958 2957 2955 2953 2951 2949 2948 2947 2946 2944 2943 2941 2939 2938 2937 2937 2935 2934 2933 2931 2929 2927 2925 2924 2923
2992 2992 2993 2993 2993 2993 2994 2994 2995 2995 2996 2996 2997 2997 2997 2997 2997 2997 2997 2997 2997 2997 2996 2997 2997 2997 2997 2997 2996 2995 2995 2994 2993 2992 2992 2991 2990 2989 2988 2987 2986 2985 2985 2984 2982 2981 2980 2978 2977 2975 2973 2972 2970 2968 2966 2964 2961 2959 2957 2955 2953 2951 2949 2947 2945 2943 2942 2941 2940 2938 2937 2935 2934 2932 2931 2930 2929 2928 2927 2926 2924 2922 2920 2918 2917
2987 2987 2988 2988 2988 2988 2988 2989 2989 2990 2990 2991 2991 2991 2992 2992 2992 2992 2992 2992 2992 2992 2992 2992 2992 2992 2992 2992 2992 2991 2990 2990 2989 2988 2987 2985 2984 2983 2982 2981 2980 2979 2979 2978 2977 2976 2974 2973 2971 2970 2968 2967 2965 2964 2961 2959 2957 2955 2952 2950 2948 2945 2943 2942 2940 2938 2937 2935 2934 2932 2931 2929 2928 2926 2925 2924 2923 2922 2920 2920 2918 2916 2915 2913 2912
2981 2982 2982 2982 2982 2983 2983 2983 2983 2984 2984 2985 2985 2985 2986 2986 2987 2987 2987 2987 2987 2987 2987 2987 2987 2987 2987 2987 2987 2987 2986 2985 2984 2983 2981 2980 2979 2978 2977 2976 2975 2974 2973 2973 2972 2970 2969 2967 2966 2964 2963 2962 2960 2959 2957 2955 2952 2950 2948 2945 2943 2941 2938 2937 2935 2933 2931 2930 2928 2927 2925 2924 2922 2920 2919 2917 2916 2915 2913 2912 2912 2911 2909 2908 2907
2975 2976 2976 2976 2977 2977 2977 2977 2978 2978 2978 2979 2979 2980 2980 2981 2981 2982 2982 2982 2982 2982 2982 2982 2982 2982 2982 2982 2982 2981 2980 2979 2979 2977 2976 2974 2974 2972 2971 2970 2969 2967 2966 2966 2965 2964 2963 2961 2960 2959 2957 2956 2955 2953 2952 2950 2948 2945 2943 2941 2938 2936 2934 2932 2930 2928 2926 2924 2922 2920 2919 2918 2916 2914 2913 2911 2910 2908 2907 2906 2906 2905 2904 2903 2902
2970 2970 2971 2971 2971 2971 2972 2972 2972 2972 2973 2973 2974 2974 2975 2975 2976 2976 2977 2977 2977 2977 2977 2977 2977 2976 2976 2976 2976 2976 2975 2974 2973 2971 2970 2968 2968 2967 2965 2965 2963 2961 2960 2959 2958 2957 2956 2955 2954 2953 2952 2950 2949 2948 2946 2945 2943 2940 2938 2936 2933 2931 2929 2927 2925 2923 2921 2919 2917 2915 2914 2912 2910 2909 2907 2906 2904 2903 2902 2901 2900 2900 2899 2898 2897
2964 2965 2965 2966 2966 2967 2967 2967 2967 2968 2968 2968 2969 2969 2969 2970 2971 2971 2972 2972 2972 2972 2972 2971 2971 2971 2971 2971 2970 2970 2969 2968 2967 2965 2963 2962 2961 2960 2959 2958 2957 2955 2954 2953 2952 2951 2949 2948 2947 2946 2945 2944 2943 2941 2940 2939 2937 2935 2933 2931 2928 2926 2924 2922 2920 2919 2917 2915 2913 2911 2909 2907 2905 2904 2902 2901 2900 2898 2897 2896 2895 2895 2894 2893 2892
2960 2960 2961 2961 2962 2962 2962 2962 2963 2963 2963 2964 2964 2964 2964 2965 2965 2965 2966 2966 2966 2966 2966 2966 2965 2965 2965 2964 2964 2964 2963 2962 2960 2959 2957 2955 2955 2954 2953 2952 2950 2949 2948 2947 2945 2944 2943 2942 2941 2940 2939 2938 2936 2935 2933 2932 2930 2929 2927 2925 2923 2921 2919 2917 2915 2914 2912 2910 2909 2907 2905 2903 2900 2899 2898 2896 2895 2894 2892 2891 2890 2889 2889 2888 2887
2954 2955 2956 2956 2957 2957 2957 2958 2958 2959 2959 2959 2959 2959 2959 2959 2959 2960 2960 2960 2960 2960 2960 2960 2959 2959 2959 2958 2957 2958 2958 2956 2954 2952 2950 2948 2947 2947 2946 2945 2943 2942 2941 2940 2939 2938 2936 2935 2934 2933 2932 2931 2930 2928 2927 2925 2924 2923 2922 2920 2918 2916 2914 2912 2910 2909 2907 2905 2904 2902 2900 2898 2896 2894 2892 2891 2890 2889 2888 2886 2885 2884 2883 2882 2881
2949 2950 2951 2951 2952 2952 2953 2953 2954 2954 2954 2954 2954 2954 2954 2954 2953 2954 2954 2954 2953 2953 2953 2953 2953 2952 2952 2952 2951 2950 2951 2950 2948 2946 2944 2942 2940 2940 2939 2937 2936 2935 2934 2932 2931 2931 2930 2929 2928 2926 2925 2924 2923 2921 2920 2918 2917 2916 2915 2913 2912 2910 2908 2906 2904 2903 2902 2900 2899 2897 2895 2893 2891 2889 2888 2886 2885 2884 2883 2881 2880 2879 2878 2877 2876
2944 2945 2946 2946 2947 2947 2948 2948 2948 2948 2948 2948 2949 2949 2949 2948 2948 2948 2948 2948 2948 2948 2947 2947 2947 2946 2945 2945 2944 2943 2943 2942 2941 2939 2937 2935 2934 2933 2932 2930 2929 2928 2927 2925 2924 2923 2922 2921 2921 2919 2917 2916 2915 2914 2913 2911 2910 2909 2907 2906 2904 2903 2901 2900 2898 2897 2896 2894 2893 2892 2890 2888 2886 2885 2883 2881 2880 2878 2877 2876 2875 2874 2873 2872 2871
2939 2940 2941 2941 2941 2942 2942 2942 2943 2943 2943 2942 2942 2942 2942 2943 2943 2943 2942 2942 2942 2942 2941 2941 2940 2939 2938 2938 2937 2936 2935 2935 2934 2932 2930 2928 2927 2925 2925 2924 2922 2921 2919 2918 2917 2917 2915 2914 2913 2912 2910 2909 2908 2907 2905 2904 2903 2901 2900 2899 2897 2896 2894 2893 2892 2890 2889 2889 2887 2886 2885 2883 2881 2880 2878 2876 2875 2873 2871 2870 2869 2868 2868 2866 2866
2934 2934 2935 2936 2936 2937 2937 2937 2937 2937 2937 2936 2936 2936 2936 2936 2936 2937 2937 2936 2936 2935 2935 2934 2933 2933 2932 2931 2930 2929 2928 2927 2926 2925 2924 2921 2919 2918 2917 2917 2915 2913 2912 2910 2910 2909 2908 2907 2906 2905 2903 2902 2901 2900 2898 2897 2895 2894 2893 2891 2890 2889 2887 2885 2884 2883 2882 2882 2881 2880 2879 2878 2876 2874 2873 2871 2869 2868 2866 2865 2863 2862 2862 2861 2860
2928 2929 2930 2931 2931 2932 2932 2932 2931 2931 2931 2931 2930 2930 2930 2929 2929 2929 2930 2931 2931 2930 2929 2928 2927 2926 2925 2924 2923 2922 2921 2920 2919 2918 2916 2914 2912 2910 2910 2909 2908 2906 2904 2903 2902 2902 2901 2899 2898 2897 2896 2894 2893 2892 2890 2889 2888 2887 2885 2884 2883 2882 2880 2878 2877 2876 2875 2875 2874 2873 2873 2872 2870 2869 2867 2866 2864 2863 2861 2859 2858 2857 2856 2855 2854
2922 2923 2924 2925 2926 2926 2927 2927 2926 2926 2926 2925 2924 2924 2924 2923 2923 2922 2922 2923 2923 2924 2924 2923 2921 2920 2919 2917 2916 2915 2914 2912 2911 2910 2908 2907 2905 2903 2902 2901 2900 2898 2896 2895 2894 2894 2893 2891 2890 2889 2887 2886 2885 2884 2883 2882 2880 2879 2878 2877 2875 2874 2873 2872 2870 2869 2868 2867 2867 2866 2866 2865 2864 2862 2861 2860 2859 2857 2856 2854 2853 2851 2850 2849 2848
2917 2918 2919 2920 2921 2921 2921 2921 2921 2920 2919 2919 2918 2917 2917 2916 2916 2915 2915 2914 2914 2915 2915 2915 2913 2912 2911 2910 2909 2908 2907 2905 2903 2901 2900 2898 2897 2895 2894 2893 2892 2890 2888 2887 2886 2885 2885 2883 2882 2881 2879 2878 2877 2876 2875 2874 2873 2871 2870 2869 2868 2867 2866 2864 2863 2862 2861 2860 2859 2859 2859 2858 2857 2856 2855 2854 2852 2851 2850 2849 2847 2846 2844 2843 2842
2913 2914 2914 2915 2915 2915 2915 2915 2914 2913 2912 2911 2911 2910 2909 2909 2909 2908 2908 2907 2906 2906 2906 2906 2904 2902 2901 2901 2900 2899 2898 2897 2896 2894 2892 2890 2888 2887 2885 2884 2884 2882 2880 2878 2877 2876 2876 2875 2873 2872 2871 2870 2869 2868 2866 2865 2865 2863 2862 2861 2860 2859 2858 2857 2855 2854 2853 2852 2852 2851 2851 2850 2850 2849 2848 2847 2846 2845 2844 2843 2841 2840 2838 2837 2836
2907 2908 2909 2909 2909 2908 2908 2907 2905 2905 2904 2903 2903 2902 2902 2901 2901 2900 2900 2900 2899 2898 2898 2897 2896 2893 2892 2891 2890 2889 2888 2887 2886 2885 2884 2882 2880 2878 2876 2875 2874 2873 2872 2870 2868 2866 2866 2866 2864 2863 2862 2861 2860 2858 2857 2856 2855 2854 2853 2852 2851 2850 2849 2848 2847 2846 2845 2844 2843 2843 2843 2842 2842 2842 2840 2840 2839 2838 2837 2836 2835 2834 2832 2831 2829
2901 2901 2901 2901 2901 2900 2899 2898 2897 2897 2896 2895 2895 2894 2893 2893 2893 2892 2892 2891 2891 2890 2889 2889 2887 2885 2883 2882 2881 2879 2878 2877 2875 2874 2874 2872 2870 2868 2867 2866 2865 2864 2863 2862 2859 2857 2856 2856 2854 2853 2852 2851 2850 2848 2847 2846 2845 2844 2843 2842 2841 2841 2840 2839 2838 2837 2836 2835 2835 2834 2834 2834 2834 2833 2833 2832 2832 2831 2830 2829 2828 2827 2826 2824 2823
2893 2893 2893 2893 2893 2892 2891 2890 2890 2889 2888 2888 2887 2886 2885 2885 2884 2884 2883 2882 2882 2881 2880 2879 2878 2876 2874 2873 2871 2869 2868 2867 2866 2864 2863 2862 2860 2858 2856 2855 2854 2853 2852 2851 2850 2847 2846 2846 2845 2843 2841 2841 2839 2838 2836 2836 2835 2834 2833 2832 2831 2830 2830 2829 2828 2828 2827 2826 2826 2825 2825 2824 2825 2825 2824 2824 2824 2823 2823 2822 2821 2820 2819 2818 2817
2885 2885 2885 2884 2884 2883 2883 2883 2882 2881 2881 2880 2879 2878 2877 2877 2876 2875 2874 2873 2872 2872 2871 2869 2868 2867 2864 2863 2862 2860 2859 2858 2857 2854 2853 2852 2851 2848 2846 2844 2842 2841 2840 2839 2838 2836 2834 2834 2833 2832 2830 2829 2828 2826 2825 2824 2823 2823 2822 2821 2820 2819 2819 2818 2817 2817 2816 2816 2815 2815 2815 2815 2815 2815 2815 2815 2815 2815 2815 2814 2813 2813 2812 2811 2810
2876 2876 2876 2876 2875 2875 2875 2874 2874 2873 2872 2872 2871 2870 2869 2868 2867 2866 2865 2864 2864 2863 2862 2860 2859 2858 2855 2854 2853 2851 2849 2849 2847 2845 2843 2842 2841 2839 2837 2834 2832 2830 2829 2827 2826 2824 2822 2821 2820 2819 2817 2816 2815 2813 2812 2811 2810 2809 2809 2809 2808 2807 2807 2806 2806 2805 2805 2804 2804 2804 2804 2804 2804 2804 2805 2806 2806 2806 2806 2806 2805 2805 2805 2804 2803
2868 2867 2867 2867 2867 2867 2867 2866 2866 2865 2864 2863 2862 2861 2860 2860 2859 2858 2857 2856 2854 2853 2852 2851 2850 2848 2847 2845 2843 2842 2840 2839 2837 2835 2833 2832 2830 2829 2827 2824 2822 2819 2818 2815 2814 2812 2810 2808 2807 2806 2804 2802 2801 2799 2798 2797 2796 2795 2794 2794 2794 2793 2793 2793 2793 2792 2792 2792 2792 2792 2792 2792 2793 2794 2794 2795 2796 2796 2797 2797 2797 2797 2797 2797 2796
2859 2859 2859 2859 2859 2859 2858 2858 2857 2857 2856 2855 2854 2853 2852 2851 2850 2849 2848 2847 2845 2844 2843 2842 2840 2839 2837 2835 2833 2832 2830 2828 2826 2824 2822 2820 2818 2816 2815 2812 2810 2808 2806 2803 2801 2799 2797 2796 2795 2794 2792 2790 2788 2786 2785 2783 2782 2780 2779 2779 2779 2779 2779 2779 2779 2778 2778 2778 2778 2779 2780 2780 2781 2781 2782 2784 2785 2786 2787 2788 2788 2788 2789 2789 2788
2850 2850 2850 2850 2850 2850 2850 2849 2849 2848 2847 2846 2845 2844 2843 2842 2841 2840 2839 2838 2836 2835 2834 2832 2831 2829 2827 2825 2823 2821 2820 2818 2815 2813 2810 2808 2806 2804 2802 2800 2798 2795 2793 2790 2788 2786 2784 2782 2782 2781 2779 2777 2776 2774 2772 2771 2769 2767 2766 2766 2765 2765 2765 2766 2765 2765 2765 2764 2764 2766 2767 2767 2768 2769 2770 2771 2773 2774 2776 2777 2779 2779 2780 2780 2780
2841 2841 2841 2841 2841 2841 2840 2840 2839 2839 2838 2837 2836 2835 2834 2833 2832 2831 2829 2828 2827 2826 2824 2822 2821 2819 2817 2815 2813 2811 2809 2807 2804 2801 2799 2796 2794 2792 2790 2787 2785 2783 2780 2778 2775 2772 2770 2768 2767 2766 2765 2764 2762 2761 2759 2758 2757 2756 2755 2754 2753 2753 2753 2753 2753 2753 2752 2751 2751 2752 2753 2754 2756 2757 2758 2759 2761 2762 2764 2766 2768 2769 2770 2771 2771
2833 2833 2833 2833 2832 2832 2831 2830 2830 2829 2828 2827 2826 2825 2824 2823 2822 2821 2820 2818 2817 2815 2814 2812 2811 2809 2807 2805 2803 2800 2798 2796 2793 2790 2787 2784 2781 2779 2777 2774 2772 2770 2767 2765 2762 2759 2757 2755 2753 2752 2751 2751 2750 2749 2748 2747 2747 2746 2745 2744 2742 2741 2741 2741 2741 2740 2740 2740 2740 2740 2741 2742 2743 2745 2747 2748 2749 2750 2752 2755 2757 2759 2760 2761 2762
2825 2825 2825 2824 2823 2823 2822 2821 2820 2820 2819 2818 2817 2816 2815 2813 2812 2811 2810 2809 2807 2806 2804 2802 2800 2798 2796 2794 2792 2790 2788 2785 2782 2779 2776 2773 2770 2767 2764 2762 2760 2757 2755 2753 2750 2747 2745 2743 2741 2740 2739 2739 2738 2738 2737 2736 2736 2735 2734 2734 2732 2731 2731 2730 2729 2728 2728 2728 2728 2729 2729 2731 2732 2734 2736 2738 2739 2740 2741 2743 2746 2748 2750 2751 2753
2816 2816 2816 2815 2814 2813 2813 2812 2811 2810 2809 2809 2807 2806 2805 2804 2803 2802 2801 2799 2798 2796 2795 2793 2791 2789 2787 2784 2782 2780 2777 2775 2772 2769 2766 2762 2759 2756 2753 2751 2749 2746 2744 2742 2739 2737 2734 2733 2731 2730 2729 2728 2728 2727 2727 2726 2725 2725 2724 2724 2723 2722 2721 2720 2719 2719 2719 2718 2718 2719 2720 2721 2722 2724 2727 2728 2729 2730 2732 2733 2736 2738 2740 2741 2743
2808 2807 2807 2806 2805 2805 2804 2803 2803 2802 2801 2800 2799 2798 2797 2796 2795 2794 2792 2791 2789 2787 2786 2784 2782 2780 2778 2776 2773 2771 2768 2766 2763 2760 2757 2754 2751 2748 2745 2742 2739 2737 2735 2733 2730 2728 2726 2724 2722 2721 2720 2719 2718 2717 2717 2716 2716 2715 2715 2715 2715 2714 2714 2713 2712 2711 2711 2711 2710 2711 2711 2712 2714 2716 2717 2719 2721 2722 2724 2725 2727 2729 2730 2732 2734
2800 2799 2799 2798 2798 2797 2796 2796 2795 2794 2794 2793 2792 2790 2789 2788 2787 2786 2785 2783 2782 2780 2778 2776 2775 2773 2771 2769 2766 2764 2761 2759 2756 2753 2750 2747 2744 2741 2738 2735 2732 2729 2727 2724 2722 2720 2718 2716 2714 2712 2711 2710 2709 2708 2707 2706 2706 2706 2706 2706 2706 2706 2706 2705 2704 2704 2703 2703 2702 2703 2703 2704 2706 2707 2709 2711 2713 2715 2716 2718 2719 2721 2722 2724 2726
2793 2792 2792 2791 2791 2790 2790 2789 2788 2787 2787 2786 2785 2784 2782 2781 2780 2779 2778 2777 2776 2774 2772 2771 2769 2767 2765 2763 2761 2759 2757 2754 2751 2748 2745 2742 2739 2736 2733 2729 2726 2723 2721 2718 2716 2713 2711 2708 2707 2705 2703 2702 2700 2699 2698 2698 2697 2697 2697 2697 2697 2697 2697 2697 2696 2696 2696 2695 2695 2695 2695 2696 2698 2699 2701 2703 2705 2708 2710 2712 2713 2714 2716 2717 2719